FW1908 Weather Reports


Display with metric or nautical units.
time (UTC)temp
F
wind
direction
speed
MPH
gust
MPH
rain 1hr
in
rain 24hr
in
rain mn
in
humidity
%
barometer
mb
20260906025704 76 292 0.0 1.0 0.00 0.02 0.02 81 1012.9
20260906025204 76 292 0.0 1.0 0.00 0.02 0.02 80 1012.8
20260906024702 77 292 0.0 1.0 0.00 0.02 0.02 80 1012.8
20260906024203 77 292 0.0 0.0 0.00 0.02 0.02 79 1012.7
20260906023703 77 292 0.0 1.0 0.00 0.02 0.02 79 1012.4
20260906023200 77 292 0.0 1.0 0.00 0.02 0.02 79 1012.4
20260906022922 77 292 0.0 1.0 0.00 0.02 0.02 78 1012.4
20260906022429 77 292 0.0 0.0 0.00 0.02 0.02 78 1012.4
20260906021701 78 292 0.0 1.0 0.00 0.02 0.02 78 1012.3
20260906021200 78 292 0.0 1.0 0.00 0.02 0.02 77 1012.4
20260906020700 78 292 0.0 1.0 0.00 0.02 0.02 77 1012.5
20260906020201 78 292 1.0 3.0 0.00 0.02 0.02 77 1012.6
20260906015158 78 292 1.0 3.0 0.00 0.02 0.02 76 1012.6
20260906014651 78 292 1.0 2.0 0.00 0.02 0.02 76 1012.3
20260906014146 78 292 1.0 2.0 0.00 0.02 0.02 75 1012.3
20260906013640 79 292 1.0 3.0 0.00 0.02 0.02 75 1012.3
20260906013134 79 292 1.0 3.0 0.00 0.02 0.02 75 1012.3
20260906012628 79 292 1.0 2.0 0.00 0.02 0.02 74 1012.4
20260906012122 79 292 0.0 2.0 0.00 0.02 0.02 74 1012.4
20260906011615 80 292 1.0 3.0 0.00 0.02 0.02 74 1012.3
20260906011110 80 292 1.0 3.0 0.00 0.02 0.02 74 1012.4
20260906010603 80 292 0.0 2.0 0.00 0.02 0.02 74 1012.3
20260906010322 80 292 0.0 2.0 0.00 0.02 0.02 73 1012.3
20260906005551 80 292 0.0 2.0 0.00 0.02 0.02 73 1012.4
20260906005314 81 292 1.0 2.0 0.00 0.02 0.02 72 1012.3
20260906004541 81 292 1.0 2.0 0.00 0.02 0.02 72 1012.1
20260906004034 81 292 0.0 2.0 0.00 0.02 0.02 72 1012.0
20260906003528 81 292 0.0 1.0 0.00 0.02 0.02 72 1012.0
20260906003022 82 292 1.0 2.0 0.00 0.02 0.02 72 1012.0
20260906002516 82 292 1.0 2.0 0.00 0.02 0.02 71 1011.8
20260906002010 82 292 1.0 3.0 0.00 0.02 0.02 71 1011.8
20260906001504 82 292 1.0 3.0 0.00 0.02 0.02 70 1011.8
20260906000958 83 292 1.0 3.0 0.00 0.02 0.02 70 1011.7
20260906000452 83 292 1.0 3.0 0.00 0.02 0.02 70 1011.7
20260905235946 83 292 1.0 3.0 0.00 0.02 0.02 69 1011.7
20260905235701 83 293 1.0 2.0 0.00 0.02 0.02 69 1011.7
20260905234933 84 293 1.0 2.0 0.00 0.02 0.02 68 1011.5
20260905234428 84 293 0.0 1.0 0.00 0.02 0.02 67 1011.5
20260905234153 84 293 0.0 1.0 0.00 0.02 0.02 67 1011.5
20260905233416 84 293 1.0 1.0 0.00 0.02 0.02 66 1011.4
20260905232910 84 293 1.0 1.0 0.00 0.02 0.02 65 1011.2
20260905232404 84 293 0.0 1.0 0.00 0.02 0.02 65 1011.2
20260905231858 84 293 0.0 2.0 0.00 0.02 0.02 65 1011.0
20260905231351 85 293 0.0 2.0 0.00 0.02 0.02 66 1010.9
20260905230846 85 293 0.0 2.0 0.00 0.02 0.02 66 1011.0
20260905230339 85 289 1.0 2.0 0.00 0.02 0.02 67 1010.9
20260905225834 85 289 1.0 2.0 0.00 0.02 0.02 66 1011.0
20260905225328 85 289 0.0 2.0 0.00 0.02 0.02 66 1011.0
20260905224822 85 289 1.0 3.0 0.00 0.02 0.02 66 1011.1
20260905224316 85 289 2.0 4.0 0.00 0.02 0.02 66 1011.1
20260905223809 85 288 2.0 4.0 0.00 0.02 0.02 66 1011.0
20260905223304 85 336 2.0 4.0 0.00 0.02 0.02 67 1010.9
20260905222759 85 336 2.0 4.0 0.00 0.02 0.02 67 1010.8
20260905222515 85 337 2.0 4.0 0.00 0.02 0.02 67 1010.8
20260905222009 85 344 1.0 4.0 0.00 0.02 0.02 67 1010.9
20260905221241 85 344 1.0 3.0 0.00 0.02 0.02 68 1010.9
20260905221000 85 344 2.0 4.0 0.00 0.02 0.02 67 1010.9
20260905215721 85 333 2.0 4.0 0.00 0.02 0.02 67 1010.9
20260905215216 85 329 2.0 5.0 0.00 0.02 0.02 67 1010.9
20260905214710 84 344 2.0 5.0 0.00 0.02 0.02 69 1010.8
20260905214203 84 332 2.0 5.0 0.00 0.02 0.02 69 1010.9
20260905213658 84 332 2.0 4.0 0.00 0.02 0.02 69 1011.0
20260905213151 84 334 2.0 5.0 0.00 0.02 0.02 68 1011.2
20260905212646 84 242 2.0 5.0 0.00 0.02 0.02 69 1011.3
20260905212139 84 327 1.0 3.0 0.00 0.02 0.02 69 1011.6
20260905211853 84 327 2.0 3.0 0.00 0.02 0.02 68 1011.8
20260905211127 84 327 2.0 3.0 0.00 0.02 0.02 67 1012.0
20260905210839 84 327 1.0 3.0 0.00 0.02 0.02 67 1012.0
20260905210116 85 327 1.0 4.0 0.00 0.02 0.02 67 1012.0
20260905205611 85 327 1.0 4.0 0.00 0.02 0.02 66 1012.0
20260905205110 85 254 1.0 3.0 0.00 0.02 0.02 66 1012.1
20260905204607 86 254 1.0 3.0 0.00 0.02 0.02 65 1012.1
20260905204106 86 254 1.0 3.0 0.00 0.02 0.02 64 1011.8
20260905203607 86 254 2.0 3.0 0.00 0.02 0.02 64 1011.7
20260905203332 86 254 3.0 6.0 0.00 0.02 0.02 62 1011.8
20260905202604 87 233 3.0 6.0 0.00 0.02 0.02 61 1011.8
20260905202102 87 302 3.0 6.0 0.00 0.02 0.02 60 1011.6
20260905201559 87 346 3.0 7.0 0.00 0.02 0.02 58 1011.5
20260905201100 89 303 3.0 7.0 0.00 0.02 0.02 56 1011.3
20260905200819 90 10 3.0 7.0 0.00 0.02 0.02 54 1011.6
20260905200058 91 0 3.0 8.0 0.00 0.02 0.02 52 1011.4
20260905195558 93 346 3.0 8.0 0.00 0.02 0.02 50 1011.3
20260905195057 94 72 3.0 8.0 0.00 0.02 0.02 49 1011.3
20260905194558 96 5 3.0 8.0 0.00 0.02 0.02 48 1011.3
20260905194059 97 349 3.0 8.0 0.00 0.02 0.02 46 1011.1
20260905193557 98 344 2.0 8.0 0.00 0.02 0.02 45 1010.8
20260905193058 98 320 2.0 5.0 0.00 0.02 0.02 44 1010.5
20260905192552 98 171 3.0 5.0 0.00 0.02 0.02 44 1010.7
20260905192046 98 183 3.0 7.0 0.00 0.02 0.02 44 1010.8
20260905191546 98 272 3.0 7.0 0.00 0.02 0.02 46 1011.0
20260905191044 99 326 3.0 9.0 0.00 0.02 0.02 43 1011.0
20260905190543 99 235 2.0 9.0 0.00 0.02 0.02 45 1010.8
20260905190039 99 327 2.0 7.0 0.00 0.02 0.02 46 1010.9
20260905185539 99 5 2.0 7.0 0.00 0.02 0.02 46 1011.1
20260905185258 99 16 2.0 6.0 0.00 0.02 0.02 47 1011.1
20260905184537 99 333 2.0 5.0 0.00 0.02 0.02 48 1011.3
20260905184038 99 346 3.0 5.0 0.00 0.02 0.02 46 1011.3
20260905183535 99 320 3.0 7.0 0.00 0.02 0.02 49 1011.3
20260905183035 98 273 3.0 7.0 0.00 0.02 0.02 47 1011.3
20260905182535 99 324 4.0 9.0 0.00 0.02 0.02 46 1011.4
20260905182256 99 319 4.0 9.0 0.00 0.02 0.02 45 1011.4
20260905181754 99 331 4.0 9.0 0.00 0.02 0.02 45 1011.6
20260905181253 99 235 3.0 7.0 0.00 0.02 0.02 47 1011.7
20260905180532 99 327 4.0 11.0 0.00 0.02 0.02 46 1011.8
20260905180031 99 279 4.0 11.0 0.00 0.02 0.02 48 1011.8
20260905175532 99 294 3.0 6.0 0.00 0.02 0.02 48 1012.0
20260905175251 98 317 3.0 9.0 0.00 0.02 0.02 46 1012.2
20260905174532 98 331 3.0 9.0 0.00 0.02 0.02 47 1012.3
20260905174032 98 316 3.0 8.0 0.00 0.02 0.02 48 1012.3
20260905173532 98 258 3.0 8.0 0.00 0.02 0.02 47 1012.5
20260905173032 98 252 3.0 10.0 0.00 0.02 0.02 49 1012.6
20260905172528 98 319 2.0 10.0 0.00 0.02 0.02 47 1012.7
20260905172028 98 337 2.0 4.0 0.00 0.02 0.02 50 1012.7
20260905171527 98 310 2.0 4.0 0.00 0.02 0.02 53 1012.8
20260905170528 97 26 2.0 4.0 0.00 0.02 0.02 52 1013.0
20260905170028 97 342 2.0 4.0 0.00 0.02 0.02 50 1013.1
20260905165528 96 48 2.0 4.0 0.00 0.02 0.02 52 1013.2
20260905165251 96 313 1.0 4.0 0.00 0.02 0.02 52 1013.2
20260905164529 96 17 2.0 4.0 0.00 0.02 0.02 50 1013.3
20260905164027 96 334 2.0 5.0 0.00 0.02 0.02 52 1013.3
20260905163751 96 94 2.0 5.0 0.00 0.02 0.02 54 1013.4
20260905163257 96 102 2.0 5.0 0.00 0.02 0.02 56 1013.5
20260905162751 95 302 2.0 5.0 0.00 0.02 0.02 57 1013.6
20260905162027 94 292 1.0 5.0 0.00 0.02 0.02 57 1013.5
20260905161525 94 241 2.0 4.0 0.00 0.02 0.02 56 1013.6
20260905160523 93 351 2.0 4.0 0.00 0.02 0.02 58 1013.6
20260905160025 93 338 3.0 6.0 0.00 0.02 0.02 61 1013.7
20260905155739 93 238 3.0 6.0 0.00 0.02 0.02 60 1013.8
20260905155021 93 242 2.0 5.0 0.00 0.02 0.02 63 1013.7
20260905154738 92 223 2.0 5.0 0.00 0.02 0.02 66 1013.8
20260905154246 92 321 2.0 8.0 0.00 0.02 0.02 63 1013.9
20260905153519 92 327 3.0 8.0 0.00 0.02 0.02 65 1013.9
20260905153017 91 234 2.0 6.0 0.00 0.02 0.02 69 1013.9
20260905152517 90 239 2.0 7.0 0.00 0.02 0.02 69 1014.0
20260905152016 90 263 3.0 7.0 0.00 0.02 0.02 69 1013.9
20260905151515 89 323 2.0 7.0 0.00 0.02 0.02 68 1013.9
20260905151015 89 240 2.0 7.0 0.00 0.02 0.02 69 1013.9
20260905150516 89 299 3.0 6.0 0.00 0.02 0.02 70 1013.9
20260905150016 88 219 3.0 6.0 0.00 0.02 0.02 71 1013.9
20260905145514 88 258 3.0 7.0 0.00 0.02 0.02 72 1014.0
20260905145014 87 230 2.0 7.0 0.00 0.02 0.02 74 1014.1
20260905144513 87 259 2.0 5.0 0.00 0.02 0.02 75 1014.0
20260905144011 86 273 2.0 5.0 0.00 0.02 0.02 76 1014.0
20260905143233 85 283 2.0 4.0 0.00 0.02 0.02 78 1014.0
20260905142733 85 248 2.0 7.0 0.00 0.02 0.02 82 1014.1
20260905142228 84 245 2.0 7.0 0.00 0.02 0.02 83 1014.1
20260905141503 83 240 2.0 4.0 0.00 0.02 0.02 83 1014.3
20260905141004 83 271 2.0 6.0 0.00 0.02 0.02 85 1014.1
20260905140503 82 268 3.0 6.0 0.00 0.02 0.02 85 1014.1
20260905140002 81 263 2.0 6.0 0.00 0.02 0.02 88 1014.3
20260905135724 80 271 3.0 6.0 0.00 0.02 0.02 89 1014.1
20260905134959 80 251 2.0 5.0 0.00 0.02 0.02 91 1014.3
20260905134459 79 252 2.0 5.0 0.00 0.02 0.02 92 1014.3
20260905134221 79 273 2.0 6.0 0.00 0.02 0.02 92 1014.4
20260905133456 78 270 2.0 6.0 0.00 0.02 0.02 92 1014.4
20260905132955 78 307 2.0 4.0 0.00 0.02 0.02 93 1014.5
20260905132719 78 248 2.0 6.0 0.00 0.02 0.02 93 1014.4
20260905131955 78 262 3.0 6.0 0.00 0.02 0.02 93 1014.5
20260905131455 77 307 2.0 4.0 0.00 0.02 0.02 94 1014.5
20260905131214 77 248 2.0 3.0 0.00 0.02 0.02 94 1014.5
20260905130453 77 271 2.0 5.0 0.00 0.02 0.02 94 1014.7
20260905125953 77 247 2.0 5.0 0.00 0.02 0.02 94 1014.7
20260905125221 76 296 2.0 5.0 0.00 0.02 0.02 94 1014.8
20260905123948 76 255 2.0 4.0 0.00 0.02 0.02 94 1014.7
20260905123444 76 298 2.0 4.0 0.00 0.02 0.02 94 1014.6
20260905122938 76 254 1.0 4.0 0.00 0.02 0.02 94 1014.6
20260905122431 76 252 1.0 3.0 0.00 0.02 0.02 94 1014.7
20260905121924 75 252 0.0 3.0 0.00 0.02 0.02 94 1014.6
20260905121419 75 277 0.0 0.0 0.00 0.02 0.02 94 1014.7
20260905120912 75 277 0.0 0.0 0.00 0.02 0.02 94 1014.7
20260905120406 75 277 0.0 0.0 0.00 0.02 0.02 93 1014.6
20260905115903 75 277 0.0 0.0 0.00 0.02 0.02 93 1014.5
20260905115402 75 277 0.0 0.0 0.00 0.02 0.02 93 1014.4
20260905114902 75 277 0.0 0.0 0.00 0.02 0.02 93 1014.4
20260905114400 75 277 0.0 0.0 0.00 0.02 0.02 93 1014.4
20260905114115 75 277 0.0 0.0 0.00 0.02 0.02 93 1014.3
20260905113355 75 277 0.0 0.0 0.00 0.02 0.02 93 1014.3
20260905112854 75 277 0.0 0.0 0.00 0.02 0.02 93 1014.3
20260905112352 75 277 0.0 0.0 0.00 0.02 0.02 93 1014.0
20260905111850 74 277 0.0 0.0 0.00 0.02 0.02 93 1013.9
20260905111351 74 277 0.0 1.0 0.00 0.02 0.02 92 1013.8
20260905111109 74 277 0.0 1.0 0.00 0.02 0.02 92 1013.7
20260905110611 74 277 0.0 0.0 0.00 0.02 0.02 92 1013.6
20260905105849 74 277 0.0 0.0 0.00 0.02 0.02 92 1013.6
20260905105347 74 277 0.0 0.0 0.00 0.02 0.02 92 1013.6
20260905104845 74 277 0.0 0.0 0.00 0.02 0.02 92 1013.5
20260905104345 74 277 0.0 0.0 0.00 0.02 0.02 92 1013.4
20260905104107 74 277 0.0 0.0 0.00 0.02 0.02 92 1013.4
20260905103343 74 277 0.0 0.0 0.00 0.02 0.02 92 1013.3
20260905102841 74 277 0.0 0.0 0.00 0.02 0.02 92 1013.2
20260905102339 75 277 0.0 1.0 0.00 0.02 0.02 92 1013.2
20260905102058 75 277 0.0 1.0 0.00 0.02 0.02 92 1013.2
20260905101331 75 277 0.0 0.0 0.00 0.02 0.02 91 1013.1
20260905100825 75 277 0.0 0.0 0.00 0.02 0.02 91 1013.1
20260905100318 75 277 0.0 0.0 0.00 0.02 0.02 91 1013.1
20260905095813 75 277 0.0 0.0 0.00 0.02 0.02 91 1013.0
20260905095307 75 277 0.0 0.0 0.00 0.02 0.02 91 1013.0
20260905094801 75 277 0.0 0.0 0.00 0.02 0.02 91 1013.0
20260905094259 75 277 0.0 0.0 0.00 0.02 0.02 91 1013.0
20260905093746 75 277 0.0 0.0 0.00 0.02 0.02 91 1013.0
20260905093506 75 277 0.0 0.0 0.00 0.02 0.02 91 1012.9
20260905092954 75 277 0.0 0.0 0.00 0.02 0.02 91 1012.9
20260905092449 75 277 0.0 0.0 0.00 0.02 0.02 91 1013.0
20260905091939 76 277 0.0 1.0 0.00 0.02 0.02 91 1013.0
20260905091216 76 277 0.0 1.0 0.01 0.02 0.02 91 1013.1
20260905090708 76 277 0.0 1.0 0.01 0.02 0.02 91 1013.2
20260905090209 76 277 0.0 1.0 0.01 0.02 0.02 90 1013.1
20260905085709 76 277 0.0 0.0 0.02 0.02 0.02 90 1013.2
20260905085208 76 277 0.0 0.0 0.02 0.02 0.02 90 1013.2
20260905084707 76 277 0.0 0.0 0.02 0.02 0.02 90 1013.3
20260905084205 76 277 0.0 1.0 0.02 0.02 0.02 90 1013.3
20260905083703 76 277 0.0 1.0 0.02 0.02 0.02 90 1013.3
20260905083203 77 277 0.0 1.0 0.02 0.02 0.02 90 1013.4
20260905082703 77 277 0.0 1.0 0.02 0.02 0.02 90 1013.5
20260905082202 77 277 0.0 1.0 0.02 0.02 0.02 90 1013.5
20260905081700 78 277 0.0 1.0 0.02 0.02 0.02 90 1013.5
20260905081159 78 277 0.0 1.0 0.01 0.01 0.01 90 1013.5
20260905080658 78 277 0.0 1.0 0.01 0.01 0.01 89 1013.6
20260905080157 78 277 1.0 2.0 0.01 0.01 0.01 89 1013.6
20260905075655 78 277 1.0 2.0 0.00 0.00 0.00 88 1013.7
20260905075155 78 277 1.0 2.0 0.00 0.00 0.00 86 1013.7
20260905074653 78 277 0.0 1.0 0.00 0.00 0.00 86 1013.8
20260905074152 78 277 0.0 1.0 0.00 0.00 0.00 85 1013.8
20260905073652 78 277 0.0 1.0 0.00 0.00 0.00 85 1013.7
20260905073146 78 277 0.0 1.0 0.00 0.00 0.00 85 1013.7
20260905072641 78 277 0.0 1.0 0.00 0.00 0.00 84 1013.8
20260905072141 78 277 0.0 1.0 0.00 0.00 0.00 84 1013.8
20260905071856 78 277 0.0 1.0 0.00 0.00 0.00 84 1013.8
20260905071139 78 277 0.0 0.0 0.00 0.00 0.00 84 1013.8
20260905070639 78 277 0.0 0.0 0.00 0.00 0.00 84 1013.9
20260905070137 78 277 0.0 0.0 0.00 0.00 0.00 84 1014.0
20260905065635 79 277 0.0 0.0 0.00 0.00 0.00 83 1014.0
20260905065135 79 277 0.0 0.0 0.00 0.00 0.00 83 1014.1
20260905064635 79 277 0.0 1.0 0.00 0.00 0.00 83 1014.3
20260905064135 79 277 0.0 1.0 0.00 0.00 0.00 83 1014.3
20260905063633 79 277 0.0 0.0 0.00 0.00 0.00 83 1014.3
20260905063357 79 277 0.0 0.0 0.00 0.00 0.00 83 1014.4
20260905062632 79 277 0.0 0.0 0.00 0.00 0.00 83 1014.5
20260905062129 79 277 0.0 1.0 0.00 0.00 0.00 83 1014.6
20260905061853 79 277 0.0 1.0 0.00 0.00 0.00 83 1014.6
20260905061350 79 277 0.0 0.0 0.00 0.00 0.00 82 1014.7
20260905060628 79 277 0.0 1.0 0.00 0.00 0.00 82 1014.7
20260905060129 79 277 0.0 1.0 0.00 0.00 0.00 82 1014.6
20260905055847 80 277 0.0 1.0 0.00 0.00 0.00 82 1014.6
20260905055130 80 277 0.0 1.0 0.00 0.00 0.00 82 1014.7
20260905054630 80 277 0.0 1.0 0.00 0.00 0.00 82 1014.7
20260905054130 80 277 0.0 1.0 0.00 0.00 0.00 82 1014.7
20260905053629 80 277 0.0 0.0 0.00 0.00 0.00 81 1014.8
20260905053129 80 277 0.0 0.0 0.00 0.00 0.00 81 1014.8
20260905052128 80 277 0.0 0.0 0.00 0.00 0.00 81 1014.8
20260905051847 80 277 0.0 0.0 0.00 0.00 0.00 81 1014.9
20260905051128 80 277 0.0 1.0 0.00 0.00 0.00 80 1015.0
20260905050628 80 277 0.0 1.0 0.00 0.00 0.00 80 1015.1
20260905050128 81 277 0.0 1.0 0.00 0.00 0.00 80 1015.0
20260905045629 81 277 0.0 0.0 0.00 0.00 0.00 80 1014.9
20260905045129 81 277 0.0 0.0 0.00 0.00 0.00 80 1015.0
20260905044857 81 277 0.0 0.0 0.00 0.00 0.00 80 1015.0
20260905044347 81 277 0.0 0.0 0.00 0.00 0.00 80 1015.0
20260905043628 81 277 0.0 1.0 0.00 0.00 0.00 80 1015.1
20260905043128 81 277 0.0 1.0 0.00 0.00 0.00 80 1015.0
20260905042628 81 277 0.0 1.0 0.00 0.00 0.00 80 1015.0
20260905042350 81 277 0.0 1.0 0.00 0.00 0.00 80 1015.1
20260905041627 81 277 0.0 1.0 0.00 0.00 0.00 80 1015.1
20260905041123 81 277 0.0 1.0 0.00 0.00 0.00 80 1015.1
20260905040624 81 277 0.0 0.0 0.00 0.00 0.00 79 1015.0
20260905040120 81 277 0.0 0.0 0.00 0.00 0.00 79 1015.0
20260905035621 81 277 0.0 0.0 0.00 0.00 0.00 79 1015.0
20260905035120 82 277 0.0 0.0 0.00 0.00 0.00 79 1015.0
20260905034620 82 277 0.0 0.0 0.00 0.00 0.00 78 1015.0
20260905034117 82 277 0.0 0.0 0.00 0.00 0.00 78 1014.9
20260905033617 82 277 0.0 0.0 0.00 0.00 0.00 78 1014.9
20260905033117 82 277 0.0 0.0 0.00 0.00 0.00 78 1014.9
20260905032617 82 277 0.0 0.0 0.00 0.00 0.00 78 1014.9
20260905032341 82 277 0.0 0.0 0.00 0.00 0.00 78 1015.0
20260905031617 82 277 0.0 0.0 0.00 0.00 0.00 78 1015.0
20260905031113 82 277 0.0 0.0 0.00 0.00 0.00 78 1015.0
20260905030613 82 277 0.0 0.0 0.00 0.00 0.00 78 1014.9
20260905030339 83 277 0.0 0.0 0.00 0.00 0.00 78 1014.9